• Join FlightAware (Why Join?)
  • Login
  • US Flag 
02:04PM EST


 

Airport Tracker/Info


-or-


 

Live Flight TrackerFlight Track Log ✈ N779JM ✈ 29-Jan-2014 ✈ KEKM - KPTK

Flight Track Log - Related Links

Times and Time Zones

All times are in EST time to prevent confusion due to time zone crossing. See the N779JM flight status page for this flight to view local times or setup timezone preferences in your user account.

Time Position Orientation Groundspeed Altitude Reporting Facility
EST Latitude Longitude Course Direction KTS MPH feet Rate Location/Type
06:07PM 41.7689 -85.9944 54° Northeast 171 197 5,000  Level Chicago Center
06:08PM 41.7831 -85.9350 72° East 167 192 6,500 1,355 Climbing Chicago Center
06:09PM 41.8008 -85.8797 67° East 164 189 7,800 1,403 Climbing Chicago Center
06:10PM 41.8150 -85.8200 72° East 167 192 9,400 1,500 Climbing Chicago Center
06:11PM 41.8344 -85.5623 71° East  Level FlightAware Approximate
06:11PM 41.8272 -85.7603 75° East 165 190 10,900  Level Chicago Center
06:12PM 41.8469 -85.6819 71° East 179 206 12,500 1,016 Climbing Chicago Center
06:13PM 41.8667 -85.6161 68° East 186 214 13,000 242 Climbing Chicago Center
06:14PM 41.8881 -85.5317 71° East 228 262 13,000  Level Chicago Center
06:15PM 41.9114 -85.4453 70° East 242 278 13,000  Level Chicago Center
06:16PM 41.9353 -85.3589 70° East 245 282 13,000  Level Chicago Center
06:17PM 41.9544 -85.2656 75° East 252 290 13,000  Level Chicago Center
06:19PM 41.9728 -85.1722 75° East 257 296 13,000  Level Chicago Center
06:20PM 41.9925 -85.0722 75° East 259 298 13,000  Level Chicago Center
06:21PM 41.9997 -84.9767 84° East 268 308 13,000 -98 Level Chicago Center
06:22PM 41.9961 -84.8808 93° East 260 299 12,800 -585 Descending Chicago Center
06:23PM 41.9917 -84.7589 93° East 269 310 11,800 -871 Descending Chicago Center
06:24PM 41.9897 -84.6600 91° East 267 307 11,000 -774 Descending Chicago Center
06:25PM 41.9881 -84.5644 91° East 260 299 10,200 -484 Descending Chicago Center
06:26PM 42.0003 -84.4747 80° East 254 292 10,000 -97 Descending Chicago Center
06:27PM 42.0403 -84.4089 51° Northeast 231 266 10,000  Level Chicago Center
06:28PM 42.0850 -84.3458 46° Northeast 232 267 10,000  Level Chicago Center
06:29PM 42.1364 -84.2639 50° Northeast 237 273 10,000  Level Chicago Center
06:30PM 42.1797 -84.1967 49° Northeast 238 274 10,000 -339 Level Chicago Center
06:31PM 42.2228 -84.1294 49° Northeast 238 274 9,300 -870 Descending Chicago Center
06:32PM 42.2739 -84.0472 50° Northeast 237 273 8,100 -1,024 Descending Cleveland Center
06:32PM 42.2825 -84.0300 56° Northeast 242 278 7,900 -1,065 Descending Cleveland Center
06:33PM 42.3175 -83.9775 48° Northeast 239 275 7,000 -1,258 Descending Cleveland Center
06:33PM 42.3306 -83.9553 52° Northeast 243 280 6,600 -1,068 Descending Cleveland Center
06:34PM 42.3739 -83.8883 49° Northeast 244 281 5,700 -811 Descending Cleveland Center
06:35PM 42.4036 -83.8414 49° Northeast 239 275 5,100 -689 Descending Cleveland Center
06:35PM 42.4172 -83.8214 47° Northeast 232 267 5,000 -190 Descending Cleveland Center
06:36PM 42.4442 -83.7764 51° Northeast 232 267 4,900 -98 Descending Cleveland Center
06:36PM 42.4558 -83.7564 52° Northeast 223 257 4,900 97 Level Cleveland Center
06:37PM 42.4928 -83.7011 48° Northeast 225 259 5,000 109 Climbing Cleveland Center
06:37PM 42.4942 -83.6997 36° Northeast 216 249 5,000 -290 Level Cleveland Center
06:38PM 42.5267 -83.6336 56° Northeast 214 246 4,700 -639 Descending Cleveland Center
06:39PM 42.5481 -83.5489 71° East 243 280 3,700 -968 Descending Cleveland Center
06:39PM 42.5486 -83.5486 20° North 237 273 3,700 -476 Level Cleveland Center
06:40PM 42.5639 -83.4647 76° East 236 272 3,200 -545 Descending Cleveland Center
06:40PM 42.5661 -83.4522 76° East 215 247 3,100 -194 Descending Cleveland Center
06:41PM 42.5794 -83.3897 74° East 222 255 3,000 -197 Descending Cleveland Center
06:41PM 42.5822 -83.3808 67° East 186 214 2,900 -563 Descending Cleveland Center
06:42PM 42.6206 -83.3467 33° Northeast 157 181 2,400 -545 Descending Cleveland Center
06:43PM 42.6517 -83.3525 352° North 137 158 1,800 -590 Descending Cleveland Center
06:43PM 42.6514 -83.3539 255° West 106 122 1,800 -387 Level Cleveland Center
06:44PM 42.6639 -83.3811 302° West 82 94 1,400 -393 Descending Cleveland Center